Flag for Germany Weather past 2 weeks in Potsdam, Brandenburg, Germany

Now
49 °F

Sunny.


Feels Like: 48 °F
Forecast: 53 / 72 °F
Wind: 3 mph from West

Location: Potsdam

Current Time: Aug 28, 2014 at 7:40:07 AM

Latest Report: Aug 28, 2014 at 7:00 AM


Visibility: 19 mi

Pressure: 30.06 "Hg

Humidity: 95%

Dew point: 48 °F

Location of PotsdamLocation

Historic Weather in Potsdam — Graph

°F

Potsdam temperature yesterday

Maximum temperature yesterday: 69 °F (at 2:00 PM)
Minimum temperature yesterday: 47 °F (at 7:00 AM)
Average temperature yesterday: 58 °F

Past Weeks' High & Low Weather Summary

 TemperatureHumidityPressure
High75 °F (Aug 13, 4:00 PM)99% (Aug 14, 5:00 AM)30.06 "Hg (Aug 14, 5:00 AM)
Low46 °F (Aug 25, 7:00 AM)39% (Aug 22, 4:00 PM)29.61 "Hg (Aug 18, 3:00 PM)
Average59 °F75%29.87 "Hg
* Reported Aug 13 6:00 AM — Aug 28 6:00 AM, Potsdam, Weather by CustomWeather, © 2014

Note: Actual official high and low records may vary slightly from our data, if they occured in-between our weather recording intervals... More about our weather records

Advertising

Potsdam weather history for previous 24 hours

 ConditionsComfort  
Time TempWeatherWind HumidityBarometerVisibility
6:00 AM
Aug 28
50 °FPassing clouds.2 mph94%30.06 "Hg22 mi
5:00 AM50 °FPassing clouds.2 mph91%30.06 "Hg25 mi
4:00 AM51 °FPassing clouds.3 mph87%30.05 "Hg25 mi
3:00 AM52 °FPassing clouds.3 mph83%30.04 "Hg25 mi
2:00 AM53 °FPassing clouds.3 mph81%30.05 "Hg25 mi
1:00 AM54 °FPassing clouds.3 mph78%30.05 "Hg28 mi
12:00 AM55 °FPassing clouds.3 mph78%30.04 "Hg28 mi
10:00 PM
Aug 27
57 °FPassing clouds.5 mph72%30.03 "Hg28 mi
9:00 PM58 °FPassing clouds.3 mph67%30.01 "Hg28 mi
8:00 PM62 °FScattered clouds.5 mph58%30.00 "Hg28 mi
7:00 PM66 °FScattered clouds.5 mph47%29.98 "Hg28 mi
6:00 PM68 °FScattered clouds.6 mph43%29.97 "Hg28 mi
5:00 PM68 °FPartly sunny.5 mph45%29.97 "Hg28 mi
4:00 PM66 °FPartly sunny.3 mph62%29.98 "Hg28 mi
3:00 PM65 °FOvercast.7 mph58%29.97 "Hg22 mi
2:00 PM69 °FScattered clouds.5 mph48%29.96 "Hg25 mi
1:00 PM67 °FScattered clouds.5 mph53%29.96 "Hg25 mi
12:00 PM65 °FScattered clouds.5 mph60%29.96 "Hg25 mi
11:00 AM63 °FPassing clouds.2 mph71%29.94 "Hg25 mi
10:00 AM59 °FPassing clouds.2 mph81%29.93 "Hg22 mi
9:00 AM53 °FPassing clouds.2 mph94%29.93 "Hg22 mi
8:00 AM49 °FPassing clouds.3 mph98%29.91 "Hg19 mi
7:00 AM47 °FPassing clouds.3 mph98%29.88 "Hg19 mi
Weather by CustomWeather, © 2014

See weather overviewHow to use our weather pages